TimeEDT,TemperatureF,Dew PointF,Humidity,Sea Level PressureIn,VisibilityMPH,Wind Direction,Wind SpeedMPH,Gust SpeedMPH,PrecipitationIn,Events,Conditions,WindDirDegrees,DateUTC
12:52 AM,68.0,64.9,90,29.94,10.0,SSW,4.6,-,N/A,,Clear,210,2013-09-12 04:52:00
1:49 AM,66.2,66.2,100,29.95,9.0,ESE,6.9,-,N/A,,Partly Cloudy,120,2013-09-12 05:49:00
1:52 AM,66.9,66.9,100,29.94,9.0,ESE,5.8,-,N/A,,Partly Cloudy,120,2013-09-12 05:52:00
2:52 AM,68.0,66.0,93,29.93,10.0,ESE,5.8,-,N/A,,Clear,120,2013-09-12 06:52:00
3:52 AM,66.9,66.0,97,29.94,10.0,Calm,Calm,-,N/A,,Clear,0,2013-09-12 07:52:00
4:52 AM,66.9,64.9,93,29.93,10.0,ESE,6.9,-,N/A,,Partly Cloudy,110,2013-09-12 08:52:00
5:52 AM,66.9,64.0,90,29.91,10.0,Calm,Calm,-,N/A,,Scattered Clouds,0,2013-09-12 09:52:00
6:01 AM,66.2,66.2,100,29.92,10.0,Variable,3.5,-,N/A,Thunderstorm,Partly Cloudy,0,2013-09-12 10:01:00
6:29 AM,66.2,66.2,100,29.93,10.0,Calm,Calm,-,N/A,,Overcast,0,2013-09-12 10:29:00
6:52 AM,66.9,66.0,97,29.92,9.0,Calm,Calm,-,N/A,,Overcast,0,2013-09-12 10:52:00
7:52 AM,66.9,66.0,97,29.91,10.0,East,3.5,-,N/A,,Partly Cloudy,90,2013-09-12 11:52:00
8:11 AM,69.8,64.4,83,29.91,10.0,Calm,Calm,-,N/A,Thunderstorm,Thunderstorm,0,2013-09-12 12:11:00
8:26 AM,69.8,66.2,88,29.90,10.0,ESE,4.6,-,N/A,,Scattered Clouds,110,2013-09-12 12:26:00
8:52 AM,71.1,66.0,84,29.89,10.0,Variable,3.5,-,N/A,,Partly Cloudy,0,2013-09-12 12:52:00
9:42 AM,73.4,66.2,78,29.88,10.0,East,4.6,-,0.00,Thunderstorm,Mostly Cloudy,100,2013-09-12 13:42:00
9:52 AM,73.9,66.9,79,29.87,10.0,Calm,Calm,-,0.00,Thunderstorm,Mostly Cloudy,0,2013-09-12 13:52:00
10:12 AM,73.4,68.0,83,29.87,1.0,ESE,3.5,-,0.12,Rain-Thunderstorm,Thunderstorms and Rain,120,2013-09-12 14:12:00
10:19 AM,71.6,69.8,94,29.86,0.8,Calm,Calm,-,0.18,Rain-Thunderstorm,Light Thunderstorms and Rain,0,2013-09-12 14:19:00
10:24 AM,71.6,69.8,94,29.86,1.5,Variable,3.5,-,0.24,Rain-Thunderstorm,Heavy Rain,0,2013-09-12 14:24:00
10:28 AM,71.6,69.8,94,29.86,2.0,East,5.8,-,0.24,Rain-Thunderstorm,Light Rain,100,2013-09-12 14:28:00
10:39 AM,71.6,69.8,94,29.85,7.0,East,3.5,-,0.24,Thunderstorm,Overcast,90,2013-09-12 14:39:00
10:52 AM,75.0,70.0,84,29.83,7.0,Calm,Calm,-,0.24,Thunderstorm,Scattered Clouds,0,2013-09-12 14:52:00
10:59 AM,75.2,71.6,89,29.84,7.0,Calm,Calm,-,N/A,,Scattered Clouds,0,2013-09-12 14:59:00
11:42 AM,77.0,71.6,83,29.82,8.0,Calm,Calm,-,N/A,Thunderstorm,Mostly Cloudy,0,2013-09-12 15:42:00
11:52 AM,77.0,71.1,82,29.81,7.0,Calm,Calm,-,N/A,Thunderstorm,Mostly Cloudy,0,2013-09-12 15:52:00
12:23 PM,75.2,71.6,89,29.83,1.8,Calm,Calm,-,0.03,Rain-Thunderstorm,Light Thunderstorms and Rain,0,2013-09-12 16:23:00
12:28 PM,73.4,71.6,94,29.81,0.8,Variable,3.5,-,0.12,Rain-Thunderstorm,Heavy Rain,0,2013-09-12 16:28:00
12:41 PM,73.4,71.6,94,29.81,1.5,NNE,3.5,-,0.18,Rain-Thunderstorm,Light Thunderstorms and Rain,30,2013-09-12 16:41:00
12:44 PM,73.4,71.6,94,29.81,3.0,Calm,Calm,-,0.18,Rain-Thunderstorm,Light Thunderstorms and Rain,0,2013-09-12 16:44:00
12:52 PM,73.9,72.0,93,29.81,4.0,East,4.6,-,0.18,Rain-Thunderstorm,Light Thunderstorms and Rain,100,2013-09-12 16:52:00
1:12 PM,73.4,69.8,88,29.80,6.0,East,4.6,-,0.00,Thunderstorm,Mostly Cloudy,90,2013-09-12 17:12:00
1:28 PM,75.2,71.6,89,29.78,6.0,East,4.6,-,0.00,,Scattered Clouds,90,2013-09-12 17:28:00
1:38 PM,75.2,71.6,89,29.78,6.0,ESE,8.1,-,0.00,Thunderstorm,Scattered Clouds,110,2013-09-12 17:38:00
1:50 PM,75.2,71.6,89,29.78,6.0,ESE,5.8,-,0.00,Rain,Light Rain,110,2013-09-12 17:50:00
1:52 PM,75.9,71.1,85,29.77,7.0,ESE,5.8,-,0.00,Rain,Light Rain,110,2013-09-12 17:52:00
2:30 PM,80.6,71.6,74,29.73,7.0,Calm,Calm,-,0.00,Thunderstorm,Scattered Clouds,0,2013-09-12 18:30:00
2:45 PM,78.8,71.6,78,29.73,7.0,Variable,3.5,-,0.00,,Partly Cloudy,0,2013-09-12 18:45:00
2:52 PM,79.0,72.0,79,29.74,6.0,NNW,3.5,-,0.00,,Haze,340,2013-09-12 18:52:00
3:09 PM,77.0,71.6,83,29.74,3.0,West,3.5,-,0.01,Rain-Thunderstorm,Light Rain,280,2013-09-12 19:09:00
3:11 PM,77.0,71.6,83,29.74,1.2,West,4.6,-,0.05,Rain-Thunderstorm,Light Rain,280,2013-09-12 19:11:00
3:20 PM,73.4,71.6,94,29.75,0.8,Variable,5.8,-,0.09,Rain-Thunderstorm,Light Rain,0,2013-09-12 19:20:00
3:22 PM,73.4,68.0,83,29.74,1.5,Variable,6.9,-,0.10,Rain-Thunderstorm,Light Rain,0,2013-09-12 19:22:00
3:25 PM,71.6,66.2,83,29.74,3.0,Variable,6.9,-,0.11,Rain-Thunderstorm,Light Thunderstorms and Rain,0,2013-09-12 19:25:00
3:30 PM,69.8,66.2,88,29.76,1.8,Variable,3.5,-,0.16,Rain-Thunderstorm,Thunderstorms and Rain,0,2013-09-12 19:30:00
3:36 PM,69.8,66.2,88,29.79,0.8,WSW,4.6,-,0.26,Rain-Thunderstorm,Heavy Thunderstorms and Rain,250,2013-09-12 19:36:00
3:45 PM,68.0,66.2,94,29.78,0.2,Calm,Calm,-,0.47,Fog-Rain-Thunderstorm,Heavy Thunderstorms and Rain,0,2013-09-12 19:45:00
3:52 PM,69.1,64.9,87,29.77,0.5,Variable,4.6,-,0.55,Fog-Rain-Thunderstorm,Heavy Thunderstorms and Rain,0,2013-09-12 19:52:00
3:58 PM,69.8,66.2,88,29.76,1.0,Variable,3.5,-,0.02,Rain-Thunderstorm,Heavy Thunderstorms and Rain,0,2013-09-12 19:58:00
4:02 PM,68.0,66.2,94,29.76,2.0,NW,4.6,-,0.03,Rain-Thunderstorm,Thunderstorms and Rain,310,2013-09-12 20:02:00
4:18 PM,68.0,64.4,88,29.73,4.0,Calm,Calm,-,0.06,Rain-Thunderstorm,Rain,0,2013-09-12 20:18:00
4:52 PM,68.0,66.0,93,29.74,9.0,Calm,Calm,-,0.06,Thunderstorm,Scattered Clouds,0,2013-09-12 20:52:00
5:12 PM,68.0,64.4,88,29.76,6.0,SSW,6.9,-,0.02,Rain,Light Rain,210,2013-09-12 21:12:00
5:30 PM,66.2,64.4,94,29.76,1.5,Calm,Calm,-,0.07,Rain,Rain,0,2013-09-12 21:30:00
5:32 PM,66.2,64.4,94,29.75,0.8,Calm,Calm,-,0.14,Rain,Heavy Rain,0,2013-09-12 21:32:00
5:43 PM,66.2,66.2,100,29.74,2.0,Calm,Calm,-,0.18,Rain,Light Rain,0,2013-09-12 21:43:00
5:50 PM,66.2,64.4,94,29.74,10.0,Calm,Calm,-,0.18,,Overcast,0,2013-09-12 21:50:00
5:52 PM,66.9,64.9,93,29.75,9.0,South,3.5,-,0.18,Rain,Light Rain,190,2013-09-12 21:52:00
6:00 PM,66.2,64.4,94,29.73,1.8,Calm,Calm,-,0.03,Rain,Heavy Rain,0,2013-09-12 22:00:00
6:14 PM,66.2,66.2,100,29.74,1.5,South,5.8,-,0.11,Rain-Thunderstorm,Heavy Rain,170,2013-09-12 22:14:00
6:25 PM,66.2,64.4,94,29.74,2.0,North,4.6,-,0.19,Rain-Thunderstorm,Heavy Thunderstorms and Rain,360,2013-09-12 22:25:00
6:28 PM,66.2,64.4,94,29.74,1.2,NE,3.5,-,0.27,Rain-Thunderstorm,Heavy Thunderstorms and Rain,40,2013-09-12 22:28:00
6:37 PM,66.2,64.4,94,29.75,1.5,Calm,Calm,-,0.32,Rain-Thunderstorm,Rain,0,2013-09-12 22:37:00
6:52 PM,66.0,66.0,100,29.74,2.0,Variable,3.5,-,0.40,Rain,Rain,0,2013-09-12 22:52:00
7:02 PM,66.2,66.2,100,29.74,4.0,East,4.6,-,0.02,Rain,Rain,100,2013-09-12 23:02:00
7:52 PM,66.0,66.0,100,29.73,6.0,SW,3.5,-,0.11,Rain,Light Rain,230,2013-09-12 23:52:00
8:26 PM,66.2,64.4,94,29.73,8.0,NE,3.5,-,0.00,,Overcast,40,2013-09-13 00:26:00
8:52 PM,66.0,66.0,100,29.71,7.0,Calm,Calm,-,0.00,Rain,Light Rain,0,2013-09-13 00:52:00
9:43 PM,66.2,66.2,100,29.71,3.0,Calm,Calm,-,0.03,Rain,Light Rain,0,2013-09-13 01:43:00
9:52 PM,66.0,64.0,93,29.71,4.0,Calm,Calm,-,0.04,Rain,Light Rain,0,2013-09-13 01:52:00
10:01 PM,66.2,66.2,100,29.71,5.0,Calm,Calm,-,0.01,Rain,Light Rain,0,2013-09-13 02:01:00
10:52 PM,66.0,64.9,96,29.69,9.0,Calm,Calm,-,0.02,,Overcast,0,2013-09-13 02:52:00
11:14 PM,66.2,64.4,94,29.70,6.0,Calm,Calm,-,N/A,,Overcast,0,2013-09-13 03:14:00
11:22 PM,66.2,64.4,94,29.70,6.0,Calm,Calm,-,N/A,,Overcast,0,2013-09-13 03:22:00
11:52 PM,66.0,64.9,96,29.68,5.0,Calm,Calm,-,0.00,Rain,Light Rain,0,2013-09-13 03:52:00
11:59 PM,66.2,64.4,94,29.69,4.0,Calm,Calm,-,0.00,Rain,Light Rain,0,2013-09-13 03:59:00